Home   Weather   Aurora   Past weeks
Flag for USA

Past Weather in Aurora, Colorado, USA — Yesterday and Last 2 Weeks

Now
48 °F

Passing clouds.


Feels Like: 44 °F
Forecast: 80 / 46 °F
Wind: 8 mph from South

Location: Buckley Air Force Base

Current Time: Oct 17, 2019 at 4:43:16 am

Latest Report: Oct 17, 2019 at 3:58 am


Visibility: 10 mi

Pressure: 29.80 "Hg (24.41 "Hg at 1647m altitude)

Humidity: 31%

Dew Point: 19 °F

Location of AuroraLocation

Past Weather in Aurora — Graph

°F

Aurora Temperature Yesterday

Maximum temperature yesterday: 78 °F (at 4:58 pm)
Minimum temperature yesterday: 39 °F (at 2:58 am)
Average temperature yesterday: 58 °F

High & Low Weather Summary for the Past Weeks

 TemperatureHumidityPressure
High82 °F (Oct 4, 2:58 pm)100% (Oct 2, 4:25 am)30.41 "Hg (Oct 2, 4:25 am)
Low12 °F (Oct 11, 2:58 am)4% (Oct 7, 2:58 pm)29.37 "Hg (Oct 9, 3:58 pm)
Average50 °F42%29.99 "Hg
* Reported Oct 2 2:58 am — Oct 17 2:58 am, Aurora. Weather by CustomWeather, © 2019

Note: Actual official high and low records may vary slightly from our data, if they occured in-between our weather recording intervals... More about our weather records

Advertising

Aurora Weather History for the Previous 24 Hours

Scroll right to see more
 ConditionsComfort  
Time TempWeatherWind HumidityBarometerVisibility
2:58 am
Thu, Oct 17
52 °FPassing clouds.No wind26%29.81 "Hg10 mi
1:58 am53 °FPassing clouds.6 mph26%29.81 "Hg10 mi
12:58 am53 °FPassing clouds.10 mph28%29.81 "Hg10 mi
11:58 pm
Wed, Oct 16
55 °FPassing clouds.14 mph26%29.84 "Hg10 mi
10:58 pm55 °FClear.13 mph25%29.87 "Hg10 mi
9:58 pm57 °FClear.14 mph22%29.90 "Hg10 mi
8:58 pm56 °FClear.12 mph24%29.93 "Hg10 mi
7:58 pm58 °FClear.10 mph18%29.97 "Hg10 mi
6:58 pm66 °FPassing clouds.7 mph13%29.92 "Hg10 mi
5:58 pm72 °FScattered clouds.5 mph11%29.92 "Hg10 mi
4:58 pm78 °FPartly sunny.No wind8%29.91 "Hg10 mi
3:58 pm78 °FPartly sunny.6 mph8%29.93 "Hg10 mi
2:58 pm75 °FPartly sunny.9 mph10%29.96 "Hg10 mi
1:58 pm78 °FPartly sunny.8 mph10%29.98 "Hg10 mi
12:58 pm76 °FPartly sunny.6 mph10%30.00 "Hg10 mi
11:58 am73 °FPartly sunny.3 mph12%30.02 "Hg10 mi
10:58 am68 °FPartly sunny.6 mph16%30.07 "Hg10 mi
9:58 am61 °FPartly sunny.13 mph21%30.09 "Hg10 mi
8:58 am53 °FPartly sunny.3 mph31%30.11 "Hg10 mi
7:58 am41 °FPartly sunny.No wind50%30.14 "Hg10 mi
6:58 am44 °FPassing clouds.6 mph43%30.09 "Hg10 mi
5:58 am42 °FPassing clouds.9 mph49%30.07 "Hg10 mi
4:58 am43 °FPassing clouds.5 mph46%30.07 "Hg10 mi
Weather by CustomWeather, © 2019

See weather overview